Time,TemperatureF,DewpointF,PressureIn,WindDirection,WindDirectionDegrees,WindSpeedMPH,WindSpeedGustMPH,Humidity,HourlyPrecipIn,Conditions,Clouds,dailyrainin,SolarRadiationWatts/m^2,SoftwareType,DateUTC
2013-08-26 00:02:00,59.0,44.0,-100.00,ESE,116,2.0,4.0,58,0.00,,,0.00,0.000000,,2013-08-26 06:02:00,
2013-08-26 00:12:00,59.0,44.0,-100.00,ESE,116,2.0,4.0,58,0.00,,,0.00,0.000000,,2013-08-26 06:12:00,
2013-08-26 00:21:00,59.0,44.0,-100.00,ESE,116,2.0,4.0,58,0.00,,,0.00,0.000000,,2013-08-26 06:21:00,
2013-08-26 00:52:00,62.0,49.0,-100.00,NW,314,0.0,5.0,63,0.00,,,0.00,0.000000,,2013-08-26 06:52:00,
2013-08-26 01:02:00,62.0,49.0,-100.00,NW,314,0.0,5.0,63,0.00,,,0.00,0.000000,,2013-08-26 07:02:00,
2013-08-26 01:11:00,62.0,49.0,-100.00,NW,314,0.0,5.0,63,0.00,,,0.00,0.000000,,2013-08-26 07:11:00,
2013-08-26 01:21:00,62.0,49.0,-100.00,NW,314,0.0,5.0,63,0.00,,,0.00,0.000000,,2013-08-26 07:21:00,
2013-08-26 01:52:00,58.0,47.0,-100.00,NNE,20,3.0,4.0,66,0.00,,,-99.99,0.000000,,2013-08-26 07:52:00,
2013-08-26 02:02:00,58.0,47.0,-100.00,NNE,20,3.0,4.0,66,0.00,,,-99.99,0.000000,,2013-08-26 08:02:00,
2013-08-26 02:11:00,58.0,47.0,-100.00,NNE,20,3.0,4.0,66,0.00,,,-99.99,0.000000,,2013-08-26 08:11:00,
2013-08-26 02:22:00,58.0,47.0,-100.00,NNE,20,3.0,4.0,66,0.00,,,-99.99,0.000000,,2013-08-26 08:22:00,
2013-08-26 02:52:00,59.0,49.0,-100.00,East,83,1.0,9.0,69,0.00,,,0.00,0.000000,,2013-08-26 08:52:00,
2013-08-26 03:02:00,59.0,49.0,-100.00,East,83,1.0,9.0,69,0.00,,,0.00,0.000000,,2013-08-26 09:02:00,
2013-08-26 03:11:00,59.0,49.0,-100.00,East,83,1.0,9.0,69,0.00,,,0.00,0.000000,,2013-08-26 09:11:00,
2013-08-26 03:21:00,59.0,49.0,-100.00,East,83,1.0,9.0,69,0.00,,,0.00,0.000000,,2013-08-26 09:21:00,
2013-08-26 03:54:00,57.0,46.0,-100.00,SW,232,0.0,9.0,66,0.00,,,0.00,0.000000,,2013-08-26 09:54:00,
2013-08-26 04:03:00,57.0,46.0,-100.00,SW,232,0.0,9.0,66,0.00,,,0.00,0.000000,,2013-08-26 10:03:00,
2013-08-26 04:12:00,57.0,46.0,-100.00,SW,232,0.0,9.0,66,0.00,,,0.00,0.000000,,2013-08-26 10:12:00,
2013-08-26 04:22:00,57.0,46.0,-100.00,SW,232,0.0,9.0,66,0.00,,,0.00,0.000000,,2013-08-26 10:22:00,
2013-08-26 04:52:00,54.0,46.0,-100.00,ENE,58,1.0,4.0,75,0.00,,,0.00,0.000000,,2013-08-26 10:52:00,
2013-08-26 05:02:00,54.0,46.0,-100.00,ENE,58,1.0,4.0,75,0.00,,,0.00,0.000000,,2013-08-26 11:02:00,
2013-08-26 05:12:00,54.0,46.0,-100.00,ENE,58,1.0,4.0,75,0.00,,,0.00,0.000000,,2013-08-26 11:12:00,
2013-08-26 05:22:00,54.0,46.0,-100.00,ENE,58,1.0,4.0,75,0.00,,,0.00,0.000000,,2013-08-26 11:22:00,
2013-08-26 05:52:00,53.0,46.0,-100.00,ESE,116,3.0,5.0,78,0.00,,,0.00,0.000000,,2013-08-26 11:52:00,
2013-08-26 06:01:00,53.0,46.0,-100.00,ESE,116,3.0,5.0,78,0.00,,,0.00,0.000000,,2013-08-26 12:01:00,
2013-08-26 06:12:00,53.0,46.0,-100.00,ESE,116,3.0,5.0,78,0.00,,,0.00,0.000000,,2013-08-26 12:12:00,
2013-08-26 06:21:00,53.0,46.0,-100.00,ESE,116,3.0,5.0,78,0.00,,,0.00,0.000000,,2013-08-26 12:21:00,
2013-08-26 06:52:00,51.0,46.0,-100.00,North,350,0.0,6.0,84,0.00,,,0.00,0.000000,,2013-08-26 12:52:00,
2013-08-26 07:02:00,51.0,46.0,-100.00,North,350,0.0,6.0,84,0.00,,,0.00,0.000000,,2013-08-26 13:02:00,
2013-08-26 07:11:00,51.0,46.0,-100.00,North,350,0.0,6.0,84,0.00,,,0.00,0.000000,,2013-08-26 13:11:00,
2013-08-26 07:21:00,51.0,46.0,-100.00,North,350,0.0,6.0,84,0.00,,,0.00,0.000000,,2013-08-26 13:21:00,
2013-08-26 07:52:00,49.0,45.0,-100.00,SE,137,0.0,6.0,85,0.00,,,0.00,1.000000,,2013-08-26 13:52:00,
2013-08-26 08:02:00,49.0,45.0,-100.00,SE,137,0.0,6.0,85,0.00,,,0.00,1.000000,,2013-08-26 14:02:00,
2013-08-26 08:11:00,49.0,45.0,-100.00,SE,137,0.0,6.0,85,0.00,,,0.00,1.000000,,2013-08-26 14:11:00,
2013-08-26 08:22:00,49.0,45.0,-100.00,SE,137,0.0,6.0,85,0.00,,,0.00,1.000000,,2013-08-26 14:22:00,
2013-08-26 08:52:00,52.0,45.0,-100.00,NW,309,2.0,0.0,78,0.00,,,0.00,47.000000,,2013-08-26 14:52:00,
2013-08-26 09:01:00,52.0,45.0,-100.00,NW,309,2.0,0.0,78,0.00,,,0.00,47.000000,,2013-08-26 15:01:00,
2013-08-26 09:12:00,52.0,45.0,-100.00,NW,309,2.0,0.0,78,0.00,,,0.00,47.000000,,2013-08-26 15:12:00,
2013-08-26 09:22:00,52.0,45.0,-100.00,NW,309,2.0,0.0,78,0.00,,,0.00,47.000000,,2013-08-26 15:22:00,
2013-08-26 10:59:00,61.0,44.0,-100.00,NW,321,0.0,4.0,53,-99.99,,,0.00,269.000000,,2013-08-26 16:59:00,
2013-08-26 11:06:00,61.0,44.0,-100.00,NW,321,0.0,4.0,53,-99.99,,,0.00,269.000000,,2013-08-26 17:06:00,
2013-08-26 11:12:00,61.0,44.0,-100.00,NW,321,0.0,4.0,53,-99.99,,,0.00,269.000000,,2013-08-26 17:12:00,
2013-08-26 11:24:00,61.0,44.0,-100.00,NW,321,0.0,4.0,53,-99.99,,,0.00,269.000000,,2013-08-26 17:24:00,
2013-08-26 11:53:00,68.0,43.0,-100.00,WNW,298,3.0,3.0,40,0.00,,,0.00,569.000000,,2013-08-26 17:53:00,
2013-08-26 12:01:00,68.0,43.0,-100.00,WNW,298,3.0,3.0,40,0.00,,,0.00,569.000000,,2013-08-26 18:01:00,
2013-08-26 12:12:00,68.0,43.0,-100.00,WNW,298,3.0,3.0,40,0.00,,,0.00,569.000000,,2013-08-26 18:12:00,
2013-08-26 12:21:00,68.0,43.0,-100.00,WNW,298,3.0,3.0,40,0.00,,,0.00,569.000000,,2013-08-26 18:21:00,
2013-08-26 12:52:00,74.0,45.0,-100.00,WNW,296,5.0,7.0,35,0.00,,,0.00,622.000000,,2013-08-26 18:52:00,
2013-08-26 13:01:00,74.0,45.0,-100.00,WNW,296,5.0,7.0,35,0.00,,,0.00,622.000000,,2013-08-26 19:01:00,
2013-08-26 13:11:00,74.0,45.0,-100.00,WNW,296,5.0,7.0,35,0.00,,,0.00,622.000000,,2013-08-26 19:11:00,
2013-08-26 13:22:00,74.0,45.0,-100.00,WNW,296,5.0,7.0,35,0.00,,,0.00,622.000000,,2013-08-26 19:22:00,
2013-08-26 13:52:00,83.0,40.0,-100.00,SE,144,7.0,10.0,22,0.00,,,0.00,467.000000,,2013-08-26 19:52:00,
2013-08-26 14:02:00,83.0,40.0,-100.00,SE,144,7.0,10.0,22,0.00,,,0.00,467.000000,,2013-08-26 20:02:00,
2013-08-26 14:11:00,83.0,40.0,-100.00,SE,144,7.0,10.0,22,0.00,,,0.00,467.000000,,2013-08-26 20:11:00,
2013-08-26 14:21:00,83.0,40.0,-100.00,SE,144,7.0,10.0,22,0.00,,,0.00,467.000000,,2013-08-26 20:21:00,
2013-08-26 14:52:00,83.0,34.0,-100.00,South,181,6.0,19.0,17,0.00,,,0.00,797.000000,,2013-08-26 20:52:00,
2013-08-26 15:01:00,83.0,34.0,-100.00,South,181,6.0,19.0,17,0.00,,,0.00,797.000000,,2013-08-26 21:01:00,
2013-08-26 15:11:00,83.0,34.0,-100.00,South,181,6.0,19.0,17,0.00,,,0.00,797.000000,,2013-08-26 21:11:00,
2013-08-26 15:22:00,83.0,34.0,-100.00,South,181,6.0,19.0,17,0.00,,,0.00,797.000000,,2013-08-26 21:22:00,
2013-08-26 15:55:00,82.0,36.0,-100.00,WNW,301,4.0,21.0,19,0.00,,,0.00,403.000000,,2013-08-26 21:55:00,
2013-08-26 16:07:00,82.0,36.0,-100.00,WNW,301,4.0,21.0,19,0.00,,,0.00,403.000000,,2013-08-26 22:07:00,
2013-08-26 16:16:00,82.0,36.0,-100.00,WNW,301,4.0,21.0,19,0.00,,,0.00,403.000000,,2013-08-26 22:16:00,
2013-08-26 16:26:00,82.0,36.0,-100.00,WNW,301,4.0,21.0,19,0.00,,,0.00,403.000000,,2013-08-26 22:26:00,
2013-08-26 16:53:00,81.0,35.0,-100.00,SE,137,4.0,15.0,19,0.00,,,0.00,363.000000,,2013-08-26 22:53:00,
2013-08-26 17:03:00,81.0,35.0,-100.00,SE,137,4.0,15.0,19,0.00,,,0.00,363.000000,,2013-08-26 23:03:00,
2013-08-26 17:12:00,81.0,35.0,-100.00,SE,137,4.0,15.0,19,0.00,,,0.00,363.000000,,2013-08-26 23:12:00,
2013-08-26 17:21:00,81.0,35.0,-100.00,SE,137,4.0,15.0,19,0.00,,,0.00,363.000000,,2013-08-26 23:21:00,
2013-08-26 17:52:00,82.0,34.0,-100.00,West,273,5.0,11.0,18,0.00,,,0.00,301.000000,,2013-08-26 23:52:00,
2013-08-26 18:01:00,82.0,34.0,-100.00,West,273,5.0,11.0,18,0.00,,,0.00,301.000000,,2013-08-27 00:01:00,
2013-08-26 18:11:00,82.0,34.0,-100.00,West,273,5.0,11.0,18,0.00,,,0.00,301.000000,,2013-08-27 00:11:00,
2013-08-26 18:21:00,82.0,34.0,-100.00,West,273,5.0,11.0,18,0.00,,,0.00,301.000000,,2013-08-27 00:21:00,
2013-08-26 18:52:00,84.0,34.0,-100.00,NNW,341,3.0,15.0,17,0.00,,,0.00,204.000000,,2013-08-27 00:52:00,
2013-08-26 19:01:00,84.0,34.0,-100.00,NNW,341,3.0,15.0,17,0.00,,,0.00,204.000000,,2013-08-27 01:01:00,
2013-08-26 19:12:00,84.0,34.0,-100.00,NNW,341,3.0,15.0,17,0.00,,,0.00,204.000000,,2013-08-27 01:12:00,
2013-08-26 19:21:00,84.0,34.0,-100.00,NNW,341,3.0,15.0,17,0.00,,,0.00,204.000000,,2013-08-27 01:21:00,
2013-08-26 19:52:00,86.0,36.0,-100.00,NNE,14,2.0,8.0,17,0.00,,,0.00,271.000000,,2013-08-27 01:52:00,
2013-08-26 20:02:00,86.0,36.0,-100.00,NNE,14,2.0,8.0,17,0.00,,,0.00,271.000000,,2013-08-27 02:02:00,
2013-08-26 20:12:00,86.0,36.0,-100.00,NNE,14,2.0,8.0,17,0.00,,,0.00,271.000000,,2013-08-27 02:12:00,
2013-08-26 20:21:00,86.0,36.0,-100.00,NNE,14,2.0,8.0,17,0.00,,,0.00,271.000000,,2013-08-27 02:21:00,
2013-08-26 20:52:00,80.0,37.0,-100.00,NNW,347,0.0,8.0,21,-99.99,,,0.00,119.000000,,2013-08-27 02:52:00,
2013-08-26 21:02:00,80.0,37.0,-100.00,NNW,347,0.0,8.0,21,-99.99,,,0.00,119.000000,,2013-08-27 03:02:00,
2013-08-26 21:12:00,80.0,37.0,-100.00,NNW,347,0.0,8.0,21,-99.99,,,0.00,119.000000,,2013-08-27 03:12:00,
2013-08-26 21:22:00,80.0,37.0,-100.00,NNW,347,0.0,8.0,21,-99.99,,,0.00,119.000000,,2013-08-27 03:22:00,
2013-08-26 21:28:00,73.0,38.0,-100.00,NE,38,0.0,7.0,28,-99.99,,,0.00,9.000000,,2013-08-27 03:28:00,
2013-08-26 21:58:00,73.0,38.0,-100.00,NE,38,0.0,7.0,28,-99.99,,,0.00,9.000000,,2013-08-27 03:58:00,
2013-08-26 22:08:00,73.0,38.0,-100.00,NE,38,0.0,7.0,28,-99.99,,,0.00,9.000000,,2013-08-27 04:08:00,
2013-08-26 22:18:00,73.0,38.0,-100.00,NE,38,0.0,7.0,28,-99.99,,,0.00,9.000000,,2013-08-27 04:18:00,
2013-08-26 22:54:00,68.0,39.0,-100.00,SE,135,1.0,7.0,34,0.00,,,0.00,0.000000,,2013-08-27 04:54:00,
2013-08-26 23:05:00,68.0,39.0,-100.00,SE,135,1.0,7.0,34,0.00,,,0.00,0.000000,,2013-08-27 05:05:00,
2013-08-26 23:13:00,68.0,39.0,-100.00,SE,135,1.0,7.0,34,0.00,,,0.00,0.000000,,2013-08-27 05:13:00,
2013-08-26 23:23:00,68.0,39.0,-100.00,SE,135,1.0,7.0,34,0.00,,,0.00,0.000000,,2013-08-27 05:23:00,
2013-08-26 23:52:00,62.0,35.0,-100.00,SE,125,0.0,4.0,36,0.00,,,0.00,0.000000,,2013-08-27 05:52:00,